Weather History for KMRH - April, 2013

Change the Weather History Date:

Monday, April 15, 2013

  Actual Average Record
Temperature  
Mean Temperature 66 °F -  
Max Temperature 71 °F 71 °F 80 °F (1964)
Min Temperature 61 °F 52 °F 33 °F (1950)
Growing Degree Days 16 (Base 50)    
Moisture  
Dew Point 59 °F    
Average Humidity 79    
Maximum Humidity 93    
Minimum Humidity 65    
Precipitation  
Precipitation 0.54 in - - ()
Sea Level Pressure  
Sea Level Pressure 30.10 in    
Wind  
Wind Speed 8 mph (ESE)    
Max Wind Speed 21 mph    
Max Gust Speed 31 mph    
Visibility 9 miles    
Events Rain    
Averages and records for this station are not official NWS values.
T = Trace of Precipitation, MM = Missing Value Source: NWS Daily Summary

Daily Weather History Graph

Daily Weather History Graph

Search for Another Location

Airport or City:

Trip Planner

Search our weather history database for the weather conditions in past years. The results will help you decide how hot, cold, wet, or windy it might be!

Date:

Astronomy

Apr. 15, 2013 Rise Set
Actual Time 6:34 AM EDT 7:39 PM EDT
Civil Twilight 6:08 AM EDT 8:05 PM EDT
Nautical Twilight 5:37 AM EDT 8:35 PM EDT
Astronomical Twilight 5:06 AM EDT 9:08 PM EDT
Moon 10:05 AM EDT (4/15) No Moon Set
Length of Visible Light 13h 56m
Length of Day
13h 04m
Waxing Crescent, 24% of the Moon is Illuminated
Apr 15
Waxing Crescent
Apr 18
First Quarter
Apr 25
Full
May 2
Last Quarter
May 9
New

Hourly Weather History & Observations

Time (EDT) Temp. Dew Point Humidity Pressure Visibility Wind Dir Wind Speed Gust Speed Precip Events Conditions
12:58 AM 66.0 °F 59.0 °F 78% 30.08 in 10.0 mi ESE 6.9 mph - N/A   Clear
1:58 AM 66.0 °F 59.0 °F 78% 30.07 in 10.0 mi SE 8.1 mph - N/A   Clear
2:58 AM 66.0 °F 55.9 °F 70% 30.07 in 10.0 mi SE 9.2 mph - N/A   Mostly Cloudy
3:58 AM 66.0 °F 55.0 °F 68% 30.08 in 10.0 mi ESE 4.6 mph - 0.00 in Rain Light Rain
4:58 AM 64.9 °F 57.0 °F 75% 30.08 in 8.0 mi ESE 9.2 mph - 0.01 in Rain Light Rain
5:58 AM 64.0 °F 59.0 °F 84% 30.08 in 9.0 mi East 5.8 mph - 0.04 in Rain Light Rain
6:58 AM 66.0 °F 57.9 °F 75% 30.03 in 10.0 mi ESE 15.0 mph 21.9 mph 0.04 in   Mostly Cloudy
7:58 AM 64.0 °F 55.9 °F 75% 30.05 in 6.0 mi ESE 13.8 mph 25.3 mph 0.03 in Rain Rain
8:58 AM 62.1 °F 55.0 °F 78% 30.04 in 4.0 mi ESE 15.0 mph 31.1 mph 0.16 in Rain Rain
9:58 AM 61.0 °F 55.0 °F 81% 30.05 in 4.0 mi ESE 20.7 mph 28.8 mph 0.18 in Rain Rain
10:58 AM 63.0 °F 59.0 °F 87% 30.05 in 7.0 mi ESE 13.8 mph 25.3 mph 0.08 in Rain Light Rain
11:58 AM 66.9 °F 60.1 °F 79% 30.06 in 8.0 mi ESE 16.1 mph 21.9 mph N/A   Overcast
12:58 PM 69.1 °F 59.0 °F 70% 30.07 in 9.0 mi ESE 12.7 mph 20.7 mph N/A   Overcast
1:43 PM 69.8 °F 60.8 °F 73% 30.07 in 9.0 mi ESE 9.2 mph - N/A   Mostly Cloudy
1:58 PM 70.0 °F 60.1 °F 71% 30.08 in 8.0 mi ESE 11.5 mph - N/A   Overcast
2:58 PM 70.0 °F 59.0 °F 68% 30.09 in 9.0 mi Variable 3.5 mph - N/A   Overcast
3:58 PM 70.0 °F 57.9 °F 65% 30.09 in 10.0 mi East 4.6 mph - N/A   Overcast
4:58 PM 66.9 °F 61.0 °F 81% 30.10 in 10.0 mi NNW 10.4 mph - N/A   Overcast
5:58 PM 66.9 °F 61.0 °F 81% 30.11 in 10.0 mi NNW 6.9 mph - N/A   Overcast
6:58 PM 66.9 °F 61.0 °F 81% 30.12 in 10.0 mi NNE 5.8 mph - N/A   Overcast
7:58 PM 66.0 °F 60.1 °F 81% 30.13 in 10.0 mi Calm Calm - N/A   Overcast
8:58 PM 64.9 °F 60.1 °F 84% 30.16 in 10.0 mi Calm Calm - N/A   Overcast
9:58 PM 64.0 °F 59.0 °F 84% 30.19 in 10.0 mi Calm Calm - N/A   Overcast
10:22 PM 64.4 °F 60.8 °F 88% 30.19 in 10.0 mi Calm Calm - N/A   Overcast
10:39 PM 64.4 °F 60.8 °F 88% 30.20 in 10.0 mi East 3.5 mph - N/A   Overcast
10:53 PM 64.4 °F 60.8 °F 88% 30.20 in 9.0 mi Calm Calm - N/A   Overcast
10:58 PM 63.0 °F 60.1 °F 90% 30.20 in 10.0 mi Calm Calm - N/A   Overcast
11:58 PM 63.0 °F 61.0 °F 93% 30.20 in 9.0 mi Calm Calm - N/A   Overcast